Retour au catalogue

STARLINK-30955

ActifCommunicationsVLEO
NORAD 58417·PAYLOAD·🇺🇸 United States

Lancé Nov 22, 2023 depuis Cape Canaveral Space Force Station

Loading…

Prochains Passages (prochaines 24 heures)

TLE

FraisSource: CelesTrak SupGP

Époque: Sep 15, 2026, 02:34 UTC

1 58417C 23180R   26258.10743056 -.00023727  00000+0 -85943-3 0  2580
2 58417  43.0024  62.3910 0001629 272.8805 308.4412 15.27588425    11

Suivez STARLINK-30955 en temps réel avec AllMySat

Download on the App Store